Location: ??????
(55.7522°N, 37.6156°E)
Time: 17:31:58
(UTC+00:00)

H-2A R/B - Pass Details

Date: 14 June 2025
Orbit: 555 x 621 km, 98.4° (Epoch: 12 July)

Event Time Altitude Azimuth Distance (km) Brightness Sun altitude
Rises 23:29:37 0° 18° (NNE) 2,755 7.6 -6.9°
Reaches altitude 10° 23:31:47 10° 23° (NNE) 1,854 6.3 -6.8°
Maximum altitude 23:35:44 58° 103° (ESE) 659 2.3 -6.5°
Drops below altitude 10° 23:39:40 10° 183° (S) 1,849 4.0 -6.3°
Enters shadow 23:40:35 - 185° (S) 2,226 4.3 -6.2°
